Stations météo

réclame
Mon MeteoGroup
Malmo/Sturup, Suède (2636): Température de l'air & dewpoint: 08.08.2020 07:00:00 - 14.08.2020 07:00:00 (CEST)Malmo/Sturup, Suède (2636): Vitesse du vent: 08.08.2020 07:00:00 - 14.08.2020 07:00:00 (CEST)Malmo/Sturup, Suède (2636): Direction du vent: 08.08.2020 07:00:00 - 14.08.2020 07:00:00 (CEST)Malmo/Sturup, Suède (2636): reduced air pressure: 08.08.2020 07:00:00 - 14.08.2020 07:00:00 (CEST)Malmo/Sturup, Suède (2636): visibility: 08.08.2020 07:00:00 - 14.08.2020 07:00:00 (CEST)
Date & Time tt [°C] td [°C] ff [km/h] ff [knt] dd ppp [hPa] vv [km]
14.08.2020 07:00:00 11,7 11,5 5 3 SSE 1015,4 10
14.08.2020 06:00:00 9,1 8,8 5 3 E 1015,6 10
14.08.2020 05:00:00 9,1 8,8 8 4 E 1015,7 10
14.08.2020 04:00:00 8,9 8,1 2 1 - 1016,3 10
14.08.2020 03:00:00 9,7 9,2 8 4 E 1016,2 10
14.08.2020 02:00:00 10,5 10,0 5 3 E 1016,5 10
14.08.2020 01:00:00 10,8 9,7 2 1 - 1017,0 10
14.08.2020 00:00:00 12,4 11,6 4 2 NNE 1017,2 10
13.08.2020 23:00:00 14,1 12,0 4 2 ENE 1016,8 10
13.08.2020 22:00:00 15,5 11,9 8 4 E 1016,6 10
13.08.2020 21:00:00 16,2 11,8 8 4 ESE 1016,7 10
13.08.2020 20:00:00 18,8 12,3 11 6 SSE 1016,8 10
13.08.2020 19:00:00 21,5 12,4 13 7 SSE 1016,8 10
13.08.2020 18:00:00 22,8 12,4 15 8 SSE 1016,8 10
13.08.2020 17:00:00 23,2 11,6 18 10 SSE 1017,0 10
13.08.2020 16:00:00 23,6 11,6 15 8 S 1017,2 10
13.08.2020 15:00:00 25,2 7,3 9 5 ESE 1017,5 10
13.08.2020 14:00:00 24,9 10,0 15 8 ENE 1017,9 10
13.08.2020 13:00:00 23,9 10,6 15 8 E 1018,2 10
13.08.2020 12:00:00 24,0 12,9 16 9 E 1018,5 10
13.08.2020 11:00:00 22,2 13,3 11 6 E 1018,8 10
13.08.2020 10:00:00 20,4 14,3 11 6 E 1018,9 10
13.08.2020 09:00:00 19,4 14,9 15 8 ESE 1019,0 10
13.08.2020 08:00:00 17,8 15,2 13 7 E 1018,9 10
13.08.2020 07:00:00 15,7 14,9 11 6 E 1019,1 10
13.08.2020 06:00:00 13,2 12,7 9 5 E 1019,6 0,2
13.08.2020 05:00:00 13,0 12,5 9 5 E 1019,7 7
13.08.2020 04:00:00 13,1 12,6 8 4 E 1020,0 10
13.08.2020 03:00:00 13,4 12,1 11 6 E 1020,2 10
13.08.2020 02:00:00 14,0 12,2 11 6 E 1020,4 10
13.08.2020 01:00:00 13,8 11,8 9 5 E 1020,9 10
13.08.2020 00:00:00 15,0 12,1 9 5 ESE 1021,1 10
12.08.2020 23:00:00 15,9 11,9 11 6 E 1020,8 10
12.08.2020 22:00:00 16,7 11,4 9 5 ESE 1020,9 10
12.08.2020 21:00:00 18,1 12,1 11 6 ESE 1020,9 10
12.08.2020 20:00:00 20,2 11,4 16 9 E 1021,0 10
12.08.2020 19:00:00 21,4 12,0 13 7 SE 1021,2 10
12.08.2020 18:00:00 21,4 13,3 16 9 SSE 1021,6 10
12.08.2020 17:00:00 21,9 12,7 16 9 SSE 1022,0 10
12.08.2020 16:00:00 22,6 12,5 18 10 SE 1022,4 10
12.08.2020 15:00:00 22,4 11,8 18 10 SSE 1022,6 10
12.08.2020 14:00:00 23,2 11,9 15 8 ESE 1023,0 10
12.08.2020 13:00:00 22,5 11,9 18 10 SSE 1023,4 10
12.08.2020 12:00:00 22,8 10,9 15 8 ESE 1023,4 10
12.08.2020 11:00:00 21,9 12,7 16 9 ESE 1023,6 10
12.08.2020 10:00:00 20,1 13,1 16 9 E 1023,9 10
12.08.2020 09:00:00 18,8 14,9 18 10 E 1023,8 10
12.08.2020 08:00:00 17,0 14,8 13 7 E 1023,8 10
12.08.2020 07:00:00 15,4 14,4 9 5 ENE 1024,2 10
12.08.2020 06:00:00 12,5 11,7 5 3 - 1024,2 10
12.08.2020 05:00:00 14,6 13,8 13 7 E 1023,8 10
12.08.2020 04:00:00 14,3 13,8 9 5 E 1024,2 10
12.08.2020 03:00:00 14,7 13,9 15 8 E 1024,3 10
12.08.2020 02:00:00 15,3 14,0 11 6 E 1024,3 10
12.08.2020 01:00:00 15,7 14,4 16 9 E 1024,4 10
12.08.2020 00:00:00 15,8 14,8 15 8 ESE 1024,3 10
11.08.2020 23:00:00 15,6 14,0 11 6 E 1024,3 10
11.08.2020 22:00:00 16,5 13,6 9 5 E 1024,1 10
11.08.2020 21:00:00 17,6 12,5 11 6 ESE 1024,1 10
11.08.2020 20:00:00 20,0 11,5 16 9 E 1023,8 10
11.08.2020 19:00:00 21,7 9,6 18 10 E 1023,8 10
11.08.2020 18:00:00 22,7 11,4 18 10 E 1023,7 10
11.08.2020 17:00:00 23,0 11,4 16 9 ESE 1024,0 10
11.08.2020 16:00:00 23,2 12,2 21 11 E 1024,2 10
11.08.2020 15:00:00 22,9 11,9 22 12 E 1024,5 10
11.08.2020 14:00:00 23,0 12,3 22 12 ESE 1024,6 10
11.08.2020 13:00:00 23,3 13,2 22 12 ESE 1024,5 10
11.08.2020 12:00:00 22,8 13,6 18 10 ESE 1024,4 10
11.08.2020 11:00:00 22,3 13,6 21 11 E 1024,3 10
11.08.2020 10:00:00 21,3 14,0 18 10 ESE 1024,2 10
11.08.2020 09:00:00 19,9 14,0 16 9 E 1024,1 10
11.08.2020 08:00:00 18,4 14,5 16 9 E 1023,7 10
11.08.2020 07:00:00 17,2 14,5 15 8 E 1023,6 10
11.08.2020 06:00:00 17,1 14,0 15 8 E 1023,7 10
11.08.2020 05:00:00 16,8 13,1 15 8 E 1023,5 10
11.08.2020 04:00:00 17,3 13,8 16 9 E 1023,6 10
11.08.2020 03:00:00 17,1 14,0 18 10 E 1023,5 10
11.08.2020 02:00:00 17,1 13,2 16 9 E 1023,2 10
11.08.2020 01:00:00 17,8 12,9 16 9 E 1023,4 10
11.08.2020 00:00:00 18,1 13,4 22 12 E 1022,7 10
10.08.2020 23:00:00 18,4 13,0 21 11 ESE 1022,7 10
10.08.2020 22:00:00 18,6 14,5 18 10 E 1022,3 10
10.08.2020 21:00:00 19,7 14,9 16 9 E 1021,7 10
10.08.2020 20:00:00 21,0 15,5 13 7 E 1021,6 10
10.08.2020 19:00:00 22,6 16,2 21 11 E 1021,2 10
10.08.2020 18:00:00 23,0 16,8 22 12 E 1020,8 10
10.08.2020 17:00:00 23,7 16,7 26 14 ENE 1020,8 10
10.08.2020 16:00:00 25,3 17,2 16 9 E 1021,5 10
10.08.2020 15:00:00 25,1 16,5 21 11 ESE 1021,6 10
10.08.2020 14:00:00 25,9 16,7 22 12 E 1021,2 10
10.08.2020 13:00:00 25,8 16,6 24 13 E 1021,0 10
10.08.2020 12:00:00 26,7 16,3 22 12 E 1020,6 10
10.08.2020 11:00:00 25,7 16,5 22 12 E 1020,6 10
10.08.2020 10:00:00 25,0 17,5 21 11 E 1020,4 10
10.08.2020 09:00:00 23,0 16,8 18 10 E 1020,3 10
10.08.2020 08:00:00 21,6 16,3 15 8 E 1020,3 10
10.08.2020 07:00:00 20,3 16,1 11 6 ENE 1020,2 10
10.08.2020 06:00:00 19,7 15,8 8 4 E 1020,0 10
10.08.2020 05:00:00 19,4 15,7 9 5 E 1019,8 10
10.08.2020 04:00:00 17,0 15,5 4 2 ENE 1019,8 10
10.08.2020 03:00:00 18,2 17,2 5 3 E 1019,7 10
10.08.2020 02:00:00 17,4 16,4 5 3 E 1019,6 10
10.08.2020 01:00:00 18,2 17,2 2 1 SSW 1019,6 10
10.08.2020 00:00:00 18,5 17,0 5 3 - 1019,6 10
09.08.2020 23:00:00 19,2 17,3 4 2 E 1019,8 10
09.08.2020 22:00:00 20,8 17,6 0 0 N 1019,8 10
09.08.2020 21:00:00 23,9 17,6 9 5 S 1019,5 10
09.08.2020 20:00:00 25,6 18,3 11 6 S 1019,0 10
09.08.2020 19:00:00 27,9 16,2 8 4 SW 1018,4 10
09.08.2020 18:00:00 28,5 16,1 15 8 W 1018,5 10
09.08.2020 17:00:00 29,4 17,9 16 9 SSW 1018,5 10
09.08.2020 16:00:00 31,4 14,5 11 6 ENE 1018,7 10
09.08.2020 15:00:00 31,2 17,1 13 7 NNE 1019,2 10
09.08.2020 14:00:00 29,9 17,7 9 5 NE 1019,7 10
09.08.2020 13:00:00 29,4 17,9 9 5 NNE 1019,8 10
09.08.2020 12:00:00 28,9 18,4 8 4 NNW 1020,2 10
09.08.2020 11:00:00 28,0 19,2 5 3 NNW 1020,4 10
09.08.2020 10:00:00 26,3 19,4 4 2 - 1020,3 10
09.08.2020 09:00:00 22,9 18,0 5 3 NNW 1020,6 10
09.08.2020 08:00:00 19,9 17,7 5 3 NNW 1020,5 10
09.08.2020 07:00:00 15,7 15,1 4 2 NW 1020,5 10
09.08.2020 06:00:00 13,9 13,4 0 0 N 1020,3 10
09.08.2020 05:00:00 14,3 13,8 4 2 NNW 1020,4 10
09.08.2020 04:00:00 14,9 14,1 5 3 N 1020,4 10
09.08.2020 03:00:00 15,3 14,5 2 1 NW 1020,4 10
09.08.2020 02:00:00 16,5 14,9 4 2 ENE 1020,5 10
09.08.2020 01:00:00 17,2 15,7 4 2 N 1020,8 10
09.08.2020 00:00:00 17,8 16,3 0 0 N 1020,8 10
08.08.2020 23:00:00 18,4 16,9 0 0 N 1020,7 10
08.08.2020 22:00:00 19,9 16,7 0 0 N 1020,8 10
08.08.2020 21:00:00 22,4 16,7 0 0 N 1020,6 10
08.08.2020 20:00:00 25,9 15,9 8 4 WSW 1020,3 10
08.08.2020 19:00:00 26,4 18,8 8 4 S 1020,3 10
08.08.2020 18:00:00 27,7 18,1 11 6 SSE 1020,2 10
08.08.2020 17:00:00 28,7 18,8 13 7 SSE 1020,3 10
08.08.2020 16:00:00 30,4 18,2 15 8 SSE 1020,3 10
08.08.2020 15:00:00 30,4 17,1 4 2 - 1020,4 10
08.08.2020 14:00:00 30,2 17,3 4 2 - 1020,8 10
08.08.2020 13:00:00 28,9 18,7 2 1 - 1021,2 10
08.08.2020 12:00:00 27,4 18,1 5 3 - 1021,4 10
08.08.2020 11:00:00 24,9 17,9 5 3 - 1021,8 10
08.08.2020 10:00:00 24,1 18,1 5 3 - 1021,7 10
08.08.2020 09:00:00 22,3 17,2 8 4 ENE 1021,9 10
08.08.2020 08:00:00 19,5 16,3 8 4 ENE 1022,1 10
08.08.2020 07:00:00 17,9 15,5 8 4 ENE 1022,0 10

tt = Température de l'air
td = dewpoint
ff = Vitesse du vent
dd = Direction du vent
ppp = reduced air pressure
vv = visibility

stations d'obs. à proximité